Location: Bu�n Treun
(12.1333°N, 108.3167°E)
Time: 13:23:30
(UTC+00:00)

Cosmos 540 Rocket - Pass Details

Date: 13 July 2020
Orbit: 740 x 753 km, 74.1° (Epoch: 06 August)

Event Time Altitude Azimuth Distance (km) Brightness Sun altitude
Rises 22:02:28 0° 327° (NNW) 3,186 6.6 -6.9°
Reaches altitude 10° 22:05:09 10° 314° (NW) 2,264 5.7 -6.3°
Maximum altitude 22:09:19 25° 260° (W) 1,466 4.4 -5.3°
Drops below altitude 10° 22:13:31 10° 205° (SSW) 2,268 5.5 -4.4°
Sets 22:16:14 0° 192° (SSW) 3,193 6.4 -3.8°
